STARLINK-3786, 52263

Orbit data source: Space-Track

STARLINK-3786, 52263 is a payload satellite owned by SpaceX/Seattle (US) in LEO that was launched on Thu, 21 Apr 2022 UTC via an FALCON 9 launch vehicle from the Air Force Eastern Test Range (AFETR). Payload-class satellites include a variety of spacecraft equipped with specific instruments for various scientific and technological missions. These include communications satellites like Starlink; space stations such as the ISS; scientific satellites like the Hubble; Earth observation satellites from companies like Planet Labs, Umbra, and HawkEye 360; GPS; miniature CubeSats for education and research; and military/defense satellites.

Loading next visibility...
Identifier
52263, 2022-041C
Orbit
LEO
Country
Flag of USUS
Related business
Manufacturer
SpaceX/Seattle
Mission
Operational Commercial Communications
Bus & Motor
STARLINK, Unknown motor
Mass
297 kg wet, ~275 kg dry
Launch date (UTC)
2022-04-21 (4 years ago)
Launch vehicle
FALCON 9
Launch site
Air Force Eastern Test Range (AFETR)
Object type
Payload
Rocket body
Debris
Shape & HBR
Box + 1 Pan, 10.1 m
Radar Cross Section
11.087 m², Large (>1 m²)

Expand to show TLE details & history
Last TLE update: 8 hours ago

TLE from 8 hours ago
0 STARLINK-3786
1 52263U 22041C   26130.45135589 -.00000473  00000-0 -11656-4 0  9998
2 52263  53.2165 191.8604 0000954  92.2975 267.8126 15.08838512223687
Epoch: 2026-05-10T10:49Z
TLE epoch observation values (Epoch: 2026-05-10T10:49:57.148Z)
Latitude
-0.00007°
Longitude
161.11798°
Altitude
540.671 km
Speed
7.593 km/s
True Right ascension
12h 47m 26s
True Declination
0° 00' 00"
Sunlit
Object was in full shadow at epoch
Visualization orbit readout
Latitude
Unknown
Longitude
Unknown
Altitude
Unknown
Speed
Unknown
Apparent Right ascension
Unknown
Apparent Declination
Unknown
Sunlit
N/A
Visualization observer readout
Local Sidereal Time
02:50:30
Azimuth
Unknown
Elevation
Unknown
Doppler factor
Unknown
Orbital elements
Apogee altitude
540.653 km
Perigee altitude
539.333 km
Semi-major axis
6,918.13 km
Eccentricity
0.0001
Inclination
53.2165°
RAAN
191.8604°
Arg. of periapsis
92.2975°
True anomaly
267.80168°
Mean anomaly
267.8126°
Eccentric anomaly
267.80714°
Mean motion
3.7719 °/min
Orbital period
95.44 mins
BSTAR
-0.000011656
Loading maneuver chart data...
Computing Atmospheric mass density...
Loading historical data...
Loading historical data...
Loading historical data...
Loading historical data...
Loading historical data...
Loading historical data...
Loading historical data...

Documentation

Showing up to 5 results
|